{"data":{"norad_id":68140,"epoch":"2026-09-20T20:37:18.529536Z","epoch_age_seconds":47950,"freshness":"FRESH","line1":"1 68140U 26048B   26263.85924224  .00001079  00000+0  10720-3 0  9993","line2":"2 68140  34.9915  54.4452 0001660 115.3221 244.7656 14.91964534 28666","mean_motion":14.91964534,"eccentricity":0.000166,"inclination_deg":34.9915,"raan_deg":54.4452,"arg_perigee_deg":115.3221,"mean_anomaly_deg":244.7656,"bstar":0.0001072,"rev_number":2866,"period_min":96.517039593382,"perigee_km":590.65351226706,"apogee_km":592.96753484488,"semimajor_km":6969.947523556,"source":"CELESTRAK","updated_at":"2026-09-21T09:00:17.096424Z"}}